Вернуться в каталог

YUXING 3-05

АктивенНаукаSSO
NORAD 68204·PAYLOAD·🇨🇳 China
Это название спутника еще не подтверждено официальными источниками.

Запущен Mar 16, 2026 с Jiuquan Satellite Launch Center

Loading…

Ближайшие Пролёты (ближайшие 24 часа)

TLE

СвежийSource: Space-Track

Эпоха: Sep 14, 2026, 11:08 UTC

1 68204U 26052G   26257.46416176  .00003259  00000-0  19180-3 0  9993
2 68204  97.5258 331.0844 0010172  10.6598 349.4846 15.12306709 27541

Отслеживайте YUXING 3-05 в реальном времени с AllMySat

Download on the App Store